Home > Weather > George Town > Past weeks

Flag for Cayman Islands Weather for the Past 2 Weeks in George Town, Cayman Islands

Now
82 °F

Passing clouds.


Feels Like: 87 °F
Forecast: N/A
Wind: 8 mph from Northeast

Location: Owen Roberts Airportgrand Cayman

Current Time: Feb 5, 2016 at 5:33:48 PM

Latest Report: Feb 5, 2016 at 4:00 PM


Visibility: N/A

Pressure: 29.98 "Hg

Humidity: 70%

Dew point: 72 °F

Location of George TownLocation

Historic Weather in George Town — Graph

°F

George Town Temperature Yesterday

Maximum temperature yesterday: 86 °F (at 1:00 PM)
Minimum temperature yesterday: 77 °F (at 10:00 PM)
Average temperature yesterday: 81 °F

High & Low Weather Summary for the Past Weeks

 TemperatureHumidityPressure
High86 °F (Jan 22, 1:00 PM)100% (Jan 21, 8:00 PM)30.15 "Hg (Jan 21, 8:00 PM)
Low72 °F (Jan 25, 7:00 AM)54% (Jan 23, 12:00 PM)29.89 "Hg (Jan 22, 4:00 AM)
Average80 °F80%30.00 "Hg
* Reported Jan 21 4:00 PM — Feb 5 4:00 PM, George Town, Weather by CustomWeather, © 2016

Note: Actual official high and low records may vary slightly from our data, if they occured in-between our weather recording intervals... More about our weather records

Advertising

George Town Weather History for the Previous 24 Hours

 ConditionsComfort  
Time TempWeatherWind HumidityBarometerVisibility
4:00 PM
Fri, Feb 5
82 °FPassing clouds.8 mph70%29.98 "HgN/A
3:00 PM82 °FPassing clouds.9 mph70%29.98 "HgN/A
1:53 PM84 °FPassing clouds.9 mph66%30.01 "HgN/A
12:58 PM84 °FPassing clouds.9 mph70%30.04 "HgN/A
11:53 AM82 °FPassing clouds.9 mph74%30.07 "HgN/A
10:50 AM82 °FPassing clouds.9 mph70%30.07 "HgN/A
9:55 AM82 °FPassing clouds.9 mph70%30.07 "HgN/A
9:00 AM81 °FScattered clouds.8 mph79%30.07 "HgN/A
8:00 AM81 °FPartly sunny.8 mph79%30.04 "HgN/A
7:00 AM77 °FPassing clouds.5 mph94%30.04 "HgN/A
5:55 AM77 °FPassing clouds.2 mph94%30.04 "HgN/A
5:00 AM77 °FClear.3 mph94%30.01 "Hg10 mi
4:00 AM77 °FClear.3 mph94%30.01 "Hg10 mi
10:00 PM
Thu, Feb 4
77 °FPassing clouds.3 mph94%30.04 "HgN/A
9:00 PM79 °FPassing clouds.3 mph84%30.04 "HgN/A
8:00 PM79 °FPassing clouds.1 mph89%30.01 "HgN/A
7:00 PM81 °FScattered showers. Passing clouds.2 mph84%30.01 "HgN/A
6:00 PM81 °FScattered showers. Scattered clouds.2 mph84%29.98 "HgN/A
5:00 PM82 °FScattered showers. Scattered clouds.5 mph74%29.98 "HgN/A
Weather by CustomWeather, © 2016

See weather overviewHow to use our weather pages